STV23S KIAD-KPBI

Flight info

Callsign STV23S
Flight time 2h 9m
Altitude 38000
Route JCOBY4 SCOOB EARZZ Q131 WAALT Y289 DULEE CLMNT2
Aircraft B742/H-SDFHILOWXY/L

Departure

Time 2026-05-04 06:52
Airport Washington Dulles International Airport (KIAD)

Arrival

Time 2026-05-04 09:01
Airport Palm Beach International Airport (KPBI)
Time Latitude Longitude Altitude Speed Heading
2026-05-04 05:52 38.94256 -77.44971 299 ft 0 kts
2026-05-04 06:38 38.94253 -77.44971 299 ft 2 kts
2026-05-04 06:40 38.94148 -77.44972 299 ft 1 kts
2026-05-04 06:40 38.94138 -77.44972 299 ft 2 kts 354°
2026-05-04 06:40 38.94125 -77.44965 299 ft 2 kts 325°
2026-05-04 06:40 38.94115 -77.44952 299 ft 2 kts 300°
2026-05-04 06:41 38.94111 -77.44934 299 ft 1 kts 275°
2026-05-04 06:41 38.94110 -77.44928 299 ft 0 kts 271°
2026-05-04 06:44 38.94112 -77.45038 298 ft 6 kts 271°
2026-05-04 06:44 38.94113 -77.45094 298 ft 5 kts 271°
2026-05-04 06:44 38.94114 -77.45157 298 ft 8 kts 271°
2026-05-04 06:45 38.94115 -77.45255 296 ft 13 kts 271°
2026-05-04 06:45 38.94116 -77.45380 296 ft 13 kts 271°
2026-05-04 06:45 38.94117 -77.45497 296 ft 12 kts 271°
2026-05-04 06:45 38.94118 -77.45607 296 ft 11 kts 271°
2026-05-04 06:46 38.94115 -77.45704 294 ft 9 kts 248°
2026-05-04 06:46 38.94056 -77.45732 292 ft 10 kts 180°
2026-05-04 06:46 38.93988 -77.45733 292 ft 9 kts 181°
2026-05-04 06:46 38.93928 -77.45734 292 ft 8 kts 181°
2026-05-04 06:48 38.93545 -77.45517 287 ft 9 kts 200°
2026-05-04 06:48 38.93494 -77.45541 286 ft 4 kts 201°
2026-05-04 06:49 38.93479 -77.45549 286 ft 0 kts 201°
2026-05-04 06:50 38.93383 -77.45670 284 ft 0 kts 291°
2026-05-04 06:51 38.93387 -77.45682 284 ft 9 kts 291°
2026-05-04 06:51 38.93489 -77.46028 287 ft 74 kts 291°
2026-05-04 06:51 38.93743 -77.46892 296 ft 133 kts 291°
2026-05-04 06:51 38.94131 -77.48182 488 ft 163 kts 291°
2026-05-04 06:52 38.94547 -77.49498 1073 ft 162 kts 291°
2026-05-04 06:52 38.94974 -77.50823 1748 ft 159 kts 291°
2026-05-04 06:52 38.95410 -77.52089 2383 ft 156 kts 291°
2026-05-04 06:52 38.95871 -77.53471 2575 ft 184 kts 291°
2026-05-04 06:53 38.96408 -77.55106 2714 ft 208 kts 291°
2026-05-04 06:53 38.96988 -77.56892 2838 ft 224 kts 291°
2026-05-04 06:53 38.97604 -77.58807 2947 ft 244 kts 291°
2026-05-04 06:53 38.98283 -77.60931 3058 ft 267 kts 291°
2026-05-04 06:54 38.99258 -77.63012 3304 ft 285 kts 314°
2026-05-04 06:54 39.00990 -77.64294 3983 ft 292 kts 343°
2026-05-04 06:54 39.03031 -77.64440 4535 ft 303 kts
2026-05-04 06:54 39.04988 -77.63565 5547 ft 297 kts 31°
2026-05-04 06:55 39.06392 -77.61674 6442 ft 292 kts 60°
2026-05-04 06:55 39.06957 -77.59177 6935 ft 296 kts 90°
2026-05-04 06:55 39.06755 -77.56541 7511 ft 296 kts 101°
2026-05-04 06:55 39.06539 -77.53879 8004 ft 301 kts 88°
2026-05-04 06:56 39.07055 -77.51281 8468 ft 303 kts 60°
2026-05-04 06:57 39.06673 -77.33252 11898 ft 322 kts 107°
2026-05-04 06:58 39.06018 -77.30492 12383 ft 325 kts 109°
2026-05-04 06:58 39.05290 -77.27705 12880 ft 327 kts 110°
2026-05-04 06:58 39.04534 -77.24908 13034 ft 342 kts 111°
2026-05-04 06:58 39.03728 -77.21943 13149 ft 358 kts 110°
2026-05-04 06:59 39.02895 -77.18874 13266 ft 375 kts 110°
2026-05-04 06:59 39.02009 -77.15606 13362 ft 392 kts 110°
2026-05-04 06:59 39.01112 -77.12296 13884 ft 397 kts 110°
2026-05-04 06:59 39.00205 -77.08944 14590 ft 397 kts 110°
2026-05-04 07:01 38.90895 -76.87157 17848 ft 410 kts 157°
2026-05-04 07:01 38.88286 -76.85869 18329 ft 404 kts 171°
2026-05-04 07:02 38.85521 -76.85156 18774 ft 404 kts 176°
2026-05-04 07:02 38.82771 -76.84522 19351 ft 406 kts 175°
2026-05-04 07:02 38.79965 -76.83784 19820 ft 411 kts 174°
2026-05-04 07:02 38.77135 -76.82949 20237 ft 417 kts 172°
2026-05-04 07:03 38.74336 -76.82070 20764 ft 419 kts 172°
2026-05-04 07:03 38.71601 -76.81191 21310 ft 420 kts 172°
2026-05-04 07:03 38.68766 -76.80276 21770 ft 423 kts 172°
2026-05-04 07:03 38.65893 -76.79349 22159 ft 427 kts 173°
2026-05-04 07:04 38.63000 -76.78418 22554 ft 432 kts 173°
2026-05-04 07:04 38.60113 -76.77492 23000 ft 435 kts 173°
2026-05-04 07:04 38.57168 -76.76549 23391 ft 438 kts 173°
2026-05-04 07:04 38.54206 -76.75599 23890 ft 440 kts 173°
2026-05-04 07:05 38.51221 -76.74644 24294 ft 443 kts 173°
2026-05-04 07:05 38.48252 -76.73693 24744 ft 444 kts 174°
2026-05-04 07:05 38.45238 -76.72730 25264 ft 443 kts 174°
2026-05-04 07:05 38.42252 -76.71886 25690 ft 443 kts 177°
2026-05-04 07:06 38.36155 -76.70608 26538 ft 442 kts 180°
2026-05-04 07:06 38.33081 -76.70073 26882 ft 445 kts 181°
2026-05-04 07:06 38.30002 -76.69563 27248 ft 447 kts 181°
2026-05-04 07:07 38.26946 -76.69064 27694 ft 447 kts 181°
2026-05-04 07:08 38.05084 -76.66000 30181 ft 455 kts 185°
2026-05-04 07:09 38.01950 -76.65758 30605 ft 455 kts 185°
2026-05-04 07:09 37.98751 -76.65529 30887 ft 458 kts 186°
2026-05-04 07:09 37.95594 -76.65311 31268 ft 458 kts 185°
2026-05-04 07:09 37.92436 -76.65093 31706 ft 457 kts 185°
2026-05-04 07:10 37.89251 -76.64876 32020 ft 459 kts 186°
2026-05-04 07:10 37.86084 -76.64673 32400 ft 458 kts 186°
2026-05-04 07:12 37.63589 -76.63316 34098 ft 469 kts 186°
2026-05-04 07:12 37.57195 -76.63505 34103 ft 451 kts 192°
2026-05-04 07:13 37.50950 -76.64220 34115 ft 454 kts 194°
2026-05-04 07:13 37.44671 -76.65063 34129 ft 456 kts 194°
2026-05-04 07:14 37.28940 -76.67187 34116 ft 452 kts 194°
2026-05-04 07:15 37.22666 -76.68034 34106 ft 454 kts 194°
2026-05-04 07:15 37.16363 -76.68886 34112 ft 456 kts 194°
2026-05-04 07:16 37.10083 -76.69727 34107 ft 453 kts 194°
2026-05-04 07:16 37.03811 -76.70573 34116 ft 457 kts 193°
2026-05-04 07:17 36.97456 -76.71428 34096 ft 457 kts 193°
2026-05-04 07:17 36.91179 -76.72268 34111 ft 457 kts 193°
2026-05-04 07:18 36.84822 -76.73120 34124 ft 458 kts 193°
2026-05-04 07:18 36.78493 -76.73967 34114 ft 457 kts 193°
2026-05-04 07:19 36.72226 -76.74805 34130 ft 456 kts 193°
2026-05-04 07:19 36.65884 -76.75657 34142 ft 459 kts 193°
2026-05-04 07:20 36.59517 -76.76508 34127 ft 460 kts 193°
2026-05-04 07:20 36.53169 -76.77353 34126 ft 458 kts 193°
2026-05-04 07:22 36.27776 -76.80729 34091 ft 461 kts 193°
2026-05-04 07:23 36.21455 -76.81563 34099 ft 458 kts 193°
2026-05-04 07:23 36.15118 -76.82398 34074 ft 460 kts 193°
2026-05-04 07:24 36.08748 -76.83237 34100 ft 460 kts 193°
2026-05-04 07:24 36.02366 -76.84083 34076 ft 464 kts 193°
2026-05-04 07:26 35.78606 -76.92988 34129 ft 441 kts 211°
2026-05-04 07:27 35.73087 -76.96370 34123 ft 447 kts 211°
2026-05-04 07:27 35.67519 -76.99786 34113 ft 446 kts 211°
2026-05-04 07:28 35.62006 -77.03170 34125 ft 445 kts 212°
2026-05-04 07:28 35.56518 -77.06674 34154 ft 444 kts 212°
2026-05-04 07:29 35.51003 -77.10130 34154 ft 444 kts 212°
2026-05-04 07:29 35.45481 -77.13525 34136 ft 447 kts 211°
2026-05-04 07:30 35.39932 -77.16907 34139 ft 445 kts 211°
2026-05-04 07:30 35.34388 -77.20275 34108 ft 445 kts 211°
2026-05-04 07:31 35.28848 -77.23636 34108 ft 448 kts 211°
2026-05-04 07:33 35.06536 -77.37114 34084 ft 446 kts 211°
2026-05-04 07:33 35.00969 -77.40466 34094 ft 446 kts 211°
2026-05-04 07:34 34.95409 -77.43807 34099 ft 446 kts 211°
2026-05-04 07:34 34.89839 -77.47149 34145 ft 446 kts 211°
2026-05-04 07:35 34.84247 -77.50499 34119 ft 449 kts 211°
2026-05-04 07:35 34.78701 -77.53816 34177 ft 446 kts 211°
2026-05-04 07:36 34.73092 -77.57167 34162 ft 450 kts 211°
2026-05-04 07:38 34.53115 -77.67875 34091 ft 457 kts 200°
2026-05-04 07:38 34.50054 -77.68790 34083 ft 457 kts 198°
2026-05-04 07:38 34.43831 -77.70445 34098 ft 459 kts 197°
2026-05-04 07:39 34.37533 -77.72045 34089 ft 462 kts 197°
2026-05-04 07:39 34.31301 -77.73613 34084 ft 457 kts 197°
2026-05-04 07:40 34.25061 -77.75188 34124 ft 461 kts 197°
2026-05-04 07:40 34.18787 -77.76769 34149 ft 459 kts 197°
2026-05-04 07:41 34.12588 -77.78329 34134 ft 456 kts 197°
2026-05-04 07:41 34.06346 -77.79900 34103 ft 459 kts 197°
2026-05-04 07:42 34.00148 -77.81454 34120 ft 456 kts 197°
2026-05-04 07:42 33.93863 -77.83031 34121 ft 461 kts 197°
2026-05-04 07:43 33.87577 -77.84605 34117 ft 461 kts 197°
2026-05-04 07:43 33.81333 -77.86206 34118 ft 456 kts 198°
2026-05-04 07:44 33.75229 -77.88080 34106 ft 457 kts 200°
2026-05-04 07:44 33.69087 -77.90118 34093 ft 452 kts 201°
2026-05-04 07:45 33.63052 -77.92155 34128 ft 451 kts 201°
2026-05-04 07:45 33.56992 -77.94205 34092 ft 455 kts 201°
2026-05-04 07:46 33.50990 -77.96226 34099 ft 448 kts 201°
2026-05-04 07:46 33.44951 -77.98262 34111 ft 451 kts 201°
2026-05-04 07:47 33.38887 -78.00301 34111 ft 452 kts 201°
2026-05-04 07:49 33.14813 -78.08362 34123 ft 445 kts 201°
2026-05-04 07:49 33.08823 -78.10365 34110 ft 451 kts 201°
2026-05-04 07:50 33.02772 -78.12383 34099 ft 452 kts 200°
2026-05-04 07:50 32.96722 -78.14394 34079 ft 445 kts 201°
2026-05-04 07:51 32.90808 -78.16357 34129 ft 442 kts 201°
2026-05-04 07:51 32.84827 -78.18347 34103 ft 449 kts 200°
2026-05-04 07:52 32.78774 -78.20355 34076 ft 455 kts 200°
2026-05-04 07:52 32.72754 -78.22341 34092 ft 443 kts 201°
2026-05-04 07:54 32.48763 -78.30254 34123 ft 448 kts 201°
2026-05-04 07:55 32.42726 -78.32242 34080 ft 451 kts 201°
2026-05-04 07:55 32.36715 -78.34212 34112 ft 445 kts 201°
2026-05-04 07:56 32.30785 -78.36154 34104 ft 444 kts 201°
2026-05-04 07:56 32.24784 -78.38123 34088 ft 451 kts 201°
2026-05-04 07:57 32.18749 -78.40093 34117 ft 444 kts 201°
2026-05-04 07:57 32.12806 -78.42031 34097 ft 444 kts 201°
2026-05-04 07:58 32.06893 -78.43959 34134 ft 444 kts 201°
2026-05-04 07:58 32.00889 -78.45917 34114 ft 450 kts 201°
2026-05-04 07:59 31.94896 -78.47860 34133 ft 441 kts 201°
2026-05-04 07:59 31.88972 -78.49786 34080 ft 447 kts 201°
2026-05-04 08:00 31.82914 -78.51753 34135 ft 452 kts 201°
2026-05-04 08:02 31.58984 -78.59483 34102 ft 448 kts 201°
2026-05-04 08:02 31.52979 -78.61468 34101 ft 449 kts 202°
2026-05-04 08:03 31.46985 -78.63497 34101 ft 444 kts 202°
2026-05-04 08:03 31.41028 -78.65528 34084 ft 448 kts 201°
2026-05-04 08:04 31.35020 -78.67578 34119 ft 451 kts 201°
2026-05-04 08:04 31.29055 -78.69603 34092 ft 440 kts 202°
2026-05-04 08:05 31.23163 -78.71608 34088 ft 446 kts 202°
2026-05-04 08:05 31.17194 -78.73639 34084 ft 450 kts 202°
2026-05-04 08:06 31.11201 -78.75667 34076 ft 445 kts 202°
2026-05-04 08:06 31.05230 -78.77689 34102 ft 446 kts 202°
2026-05-04 08:08 30.81398 -78.85733 34101 ft 449 kts 202°
2026-05-04 08:11 30.54347 -78.94809 34069 ft 444 kts 202°
2026-05-04 08:11 30.45418 -78.97808 34085 ft 447 kts 202°
2026-05-04 08:12 30.39410 -78.99615 34064 ft 448 kts 200°
2026-05-04 08:12 30.33343 -79.01310 34089 ft 451 kts 200°
2026-05-04 08:13 30.27251 -79.02972 34067 ft 449 kts 200°
2026-05-04 08:13 30.21136 -79.04635 34075 ft 450 kts 200°
2026-05-04 08:14 30.15052 -79.06287 34069 ft 451 kts 200°
2026-05-04 08:16 29.90620 -79.12908 34055 ft 452 kts 200°
2026-05-04 08:16 29.84488 -79.14561 34048 ft 449 kts 200°
2026-05-04 08:17 29.78411 -79.16170 34065 ft 451 kts 200°
2026-05-04 08:17 29.72298 -79.17760 34046 ft 447 kts 201°
2026-05-04 08:19 29.48048 -79.23981 34050 ft 446 kts 200°
2026-05-04 08:20 29.41951 -79.25537 34059 ft 449 kts 201°
2026-05-04 08:20 29.35802 -79.27106 33868 ft 457 kts 200°
2026-05-04 08:21 29.32698 -79.27894 33452 ft 457 kts 200°
2026-05-04 08:21 29.29604 -79.28673 33088 ft 450 kts 200°
2026-05-04 08:21 29.26587 -79.29431 32718 ft 448 kts 200°
2026-05-04 08:21 29.23512 -79.30210 32367 ft 453 kts 200°
2026-05-04 08:22 29.20429 -79.30993 32013 ft 458 kts 200°
2026-05-04 08:22 29.17291 -79.31785 31660 ft 461 kts 200°
2026-05-04 08:24 28.96269 -79.37027 29053 ft 419 kts 200°
2026-05-04 08:24 28.93412 -79.37740 28695 ft 416 kts 200°
2026-05-04 08:24 28.90589 -79.38445 28307 ft 420 kts 200°
2026-05-04 08:24 28.87725 -79.39160 27903 ft 419 kts 200°
2026-05-04 08:25 28.84909 -79.39856 27555 ft 412 kts 200°
2026-05-04 08:25 28.82108 -79.40546 27290 ft 406 kts 200°
2026-05-04 08:25 28.79346 -79.41228 27022 ft 404 kts 200°
2026-05-04 08:25 28.76624 -79.41901 26741 ft 404 kts 200°
2026-05-04 08:26 28.73866 -79.42584 26518 ft 407 kts 200°
2026-05-04 08:27 28.54711 -79.47280 24697 ft 392 kts 200°
2026-05-04 08:28 28.52070 -79.47925 24439 ft 389 kts 199°
2026-05-04 08:28 28.49400 -79.48576 24196 ft 392 kts 200°
2026-05-04 08:28 28.46723 -79.49234 23931 ft 396 kts 200°
2026-05-04 08:28 28.44051 -79.49885 23679 ft 390 kts 199°
2026-05-04 08:29 28.41403 -79.50526 23423 ft 382 kts 199°
2026-05-04 08:29 28.38822 -79.51154 23176 ft 383 kts 199°
2026-05-04 08:29 28.36212 -79.51791 22920 ft 386 kts 199°
2026-05-04 08:31 28.18165 -79.56471 21156 ft 374 kts 200°
2026-05-04 08:33 28.01552 -79.60905 19494 ft 369 kts 200°
2026-05-04 08:33 27.99003 -79.61583 19244 ft 369 kts 200°
2026-05-04 08:35 27.81658 -79.66202 17477 ft 358 kts 200°
2026-05-04 08:35 27.79196 -79.66859 17229 ft 361 kts 200°
2026-05-04 08:35 27.76741 -79.67513 16991 ft 359 kts 199°
2026-05-04 08:35 27.74344 -79.68149 16749 ft 357 kts 200°
2026-05-04 08:37 27.59826 -79.72006 15289 ft 354 kts 199°
2026-05-04 08:37 27.57421 -79.72646 15145 ft 355 kts 199°
2026-05-04 08:37 27.55043 -79.73280 15021 ft 355 kts 199°
2026-05-04 08:38 27.52635 -79.73917 14806 ft 352 kts 199°
2026-05-04 08:38 27.50230 -79.74558 14570 ft 354 kts 199°
2026-05-04 08:38 27.47880 -79.75180 14319 ft 344 kts 199°
2026-05-04 08:40 27.33008 -79.79121 12588 ft 291 kts 199°
2026-05-04 08:40 27.31046 -79.79643 12327 ft 290 kts 199°
2026-05-04 08:40 27.29089 -79.80163 12083 ft 287 kts 199°
2026-05-04 08:41 27.27114 -79.80689 11838 ft 291 kts 199°
2026-05-04 08:41 27.25136 -79.81215 11591 ft 290 kts 199°
2026-05-04 08:41 27.23190 -79.81729 11175 ft 291 kts 199°
2026-05-04 08:41 27.21236 -79.82343 10688 ft 291 kts 204°
2026-05-04 08:42 27.19377 -79.83175 10411 ft 285 kts 209°
2026-05-04 08:42 27.17581 -79.84134 10053 ft 286 kts 212°
2026-05-04 08:42 27.15792 -79.85162 9557 ft 290 kts 213°
2026-05-04 08:42 27.14012 -79.86208 9054 ft 293 kts 212°
2026-05-04 08:43 27.12189 -79.87287 8541 ft 296 kts 212°
2026-05-04 08:43 27.10372 -79.88360 7992 ft 301 kts 211°
2026-05-04 08:43 27.08494 -79.89472 7294 ft 306 kts 211°
2026-05-04 08:43 27.06616 -79.90585 6618 ft 310 kts 210°
2026-05-04 08:44 27.04704 -79.91713 5915 ft 307 kts 209°
2026-05-04 08:44 27.02844 -79.92803 5274 ft 302 kts 209°
2026-05-04 08:46 26.91287 -80.01395 3970 ft 270 kts 218°
2026-05-04 08:46 26.89826 -80.02650 3978 ft 255 kts 218°
2026-05-04 08:46 26.88425 -80.03852 3992 ft 249 kts 218°
2026-05-04 08:46 26.87070 -80.05016 3994 ft 247 kts 218°
2026-05-04 08:47 26.85691 -80.06201 3998 ft 248 kts 218°
2026-05-04 08:47 26.84389 -80.07413 3992 ft 244 kts 228°
2026-05-04 08:47 26.83559 -80.09061 3998 ft 243 kts 260°
2026-05-04 08:47 26.83393 -80.10909 3998 ft 239 kts 270°
2026-05-04 08:48 26.83163 -80.12777 3994 ft 244 kts 251°
2026-05-04 08:48 26.82289 -80.14407 4004 ft 251 kts 230°
2026-05-04 08:48 26.81200 -80.15916 3995 ft 244 kts 238°
2026-05-04 08:48 26.80571 -80.17655 4001 ft 243 kts 260°
2026-05-04 08:49 26.80267 -80.19521 3999 ft 243 kts 262°
2026-05-04 08:50 26.78618 -80.30669 3997 ft 240 kts 263°
2026-05-04 08:50 26.78345 -80.32482 3993 ft 239 kts 262°
2026-05-04 08:51 26.78068 -80.34356 3996 ft 243 kts 262°
2026-05-04 08:51 26.77790 -80.36195 3986 ft 241 kts 257°
2026-05-04 08:51 26.76922 -80.37826 3808 ft 248 kts 222°
2026-05-04 08:51 26.75409 -80.38650 3558 ft 245 kts 186°
2026-05-04 08:52 26.73691 -80.38636 3323 ft 247 kts 174°
2026-05-04 08:52 26.72018 -80.38399 3085 ft 240 kts 158°
2026-05-04 08:52 26.70685 -80.37356 3016 ft 233 kts 124°
2026-05-04 08:52 26.69813 -80.35821 2992 ft 230 kts 110°
2026-05-04 08:53 26.69430 -80.34136 2988 ft 224 kts 96°
2026-05-04 08:54 26.68847 -80.23126 2161 ft 177 kts 89°
2026-05-04 08:55 26.68790 -80.21795 1981 ft 163 kts 89°
2026-05-04 08:55 26.68738 -80.20586 1838 ft 149 kts 89°
2026-05-04 08:55 26.68690 -80.19467 1569 ft 142 kts 89°
2026-05-04 08:55 26.68646 -80.18379 1380 ft 142 kts 90°
2026-05-04 08:57 26.68303 -80.10411 46 ft 147 kts 93°
2026-05-04 09:01 26.68643 -80.08874 20 ft 3 kts 271°
2026-05-04 09:01 26.68643 -80.08891 20 ft 0 kts 271°
2026-05-04 09:01 26.68643 -80.08893 20 ft 0 kts 271°